Timeline UpdatesTrip UpdatesNews PostsPvt PostsTravel TipsAdmin PostsConv PostsFollowed PostsChat RequestsBlog PostsPNR Posts

Disclaimer
Search
 
 
Wed Sep 3, 2014 02:56:34 ISTHomeTrainsΣChainsAtlasPNRForumGalleryNewsFAQTripsMembersLoginFeedback
No Recent News for this Train
Other Trains in the News **new
Latest...
⇐ Return Journey: Train# 59705

59706/Jaipur Jn-Suratgarh Jn Passenger (UnReserved)

OLD Time-Table. Click here to UPDATE TT
Sep 28 2013 (6:10PM)
Change Departure Station:
Change Arrival Station:
Post a Train Travel TipPost a Train Travel Tip **new
Post a Comment/Question/Picture/VideoPost a Comment/Question/Picture/Video
Pantry/Catering
✕ NO Pantry Car
✕ NO Catering
Loco/Rake Reversals
MTD/Merta Road Junction (4);
RSA - Rake Sharing
Rake/Coach Composition
Loco
News    PNR    Forum    Time-Table    Availability    Fare Chart    Map    Arr/Dep History    Trips    Gallery    ΣChains    X/O    Timeline    
Travel Time: 1h 28m    7 halts    Distance: 62 km    Avg Speed: 42 km/hr
Type: Passenger
Zone: NWR/North Western
Departs @ 05:00
Platform# 5
SMTWTFS
Jaipur Junction/JP 
Arrives @ 06:28
Platform# ???
SMTWTFS
Sambhar Lake/SBR 

7 halts. 9 intermediate Stations between Jaipur Junction and Sambhar Lake

Show ALL intermediate Stations  

#CodeStation NameX/OArrivesAvgDepartsAvgHaltPFDay#KmSpeedElevZoneAddress
1JP»Jaipur Junction (7)»  -05:00-510.053434mNWRJaipur, Rajasthan
2KKUKanakpura  05:10-05:11-1m--18.958429mNWRJaipur, Rajasthan
3DNKDhanakyaX  05:21-05:22-1m--118.664418mNWRJaipur, Rajasthan
4BOBSBobas  05:32-05:33-1m--129.356396mNWRJaipur, Rajasthan
5JOBAsalpur JobnerX  05:41-05:42-1m--136.748379mNWRJaipur, Rajasthan
6DHNDDhinda  05:49-05:50-1m--142.440386mNWRMDR 59, Rajasthan
7HDAHirnoda  05:56-05:57-1m--146.429400mNWRJaipur, Rajasthan
8FLPhulera Junction (5)  06:15-06:20-5m--155.154386mNWRPhulera, Rajasthan
9SBR•Sambhar Lake•  06:28-06:29-1m--162.251368mNWRSambhar, Rajasthan
10GAGudha (1)  06:38-06:40-2m1169.971365mNWRPhulera, Rajasthan
11GVMRGovindi MarwarX  06:49-06:51-2m--180.669373mNWRSambhar Lake, Rajasthan
12NACNawa City  06:59-07:01-2m--189.844390mNWRNawa, Rajasthan
13NYKNaya Kharadia  07:10-07:11-1m--196.443375mNWRMakrana, Rajasthan
14THMRThathana Mithri  07:17-07:18-1m--1100.757388mNWRNawa City, Rajasthan
15KMNCKuchaman CityO  07:23-07:25-2m--1105.527404mNWRPalari, Rajasthan
16MKNMakrana Junction (2)  07:57-07:59-2m--1119.734423mNWRMakrana, Rajasthan
17BOWBorawar  08:08-08:10-2m--1124.879403mNWRBesrol, Rajasthan
18BSRLBesroliX  08:19-08:21-2m--1136.768378mNWRNagaur, Rajasthan
19GCHGachhipuraX  08:31-08:33-2m--1148.060362mNWRNagaur, Rajasthan
20DNADegana Junction (4)  08:48-08:51-3m--1163.163339mNWRDegana, Rajasthan
21JACNJalsu Nanak  08:58-08:59-1m--1170.456331mNWRREN, Rajasthan
22JACJalsuX  09:05-09:07-2m--1176.068321mNWRNagaur, Rajasthan
23RENRen  09:19-09:21-2m--1189.715307mNWRNagaur, Rajasthan
24KQWKheduli (1)  09:29-09:31-2m--1191.766307mNWRRen, Rajasthan
25MTDMerta Road Junction (4)X09:45-10:05-20m--1207.141322mNWRPhalodi, Rajasthan
26MCPEMarwar Chapri  10:15-10:17-2m--1213.958317mNWRKheduli, Rajasthan
27DSLDeswal  10:25-10:27-2m--1221.760325mNWRNagaur, Rajasthan
28KJWKhajwana  10:36-10:38-2m--1230.767329mNWRKhajwana, Rajasthan
29MDWMarwar Mundwa  10:52-10:54-2m--1246.497334mNWRMundwa, Rajasthan
30NGONagaurX  11:05-11:07-2m--1264.149299mNWRNagaur, Rajasthan
31BWSBadwasi  11:25-11:27-2m--1278.762276mNWRMDR 69, Rajasthan
32ALAIAlaiX  11:35-11:37-2m--1286.969289mNWRAlai, Rajasthan
33SBLJShri Balaji  11:47-11:49-2m--1298.542296mNWRNational Highway 89, Rajasthan
34CLOChilo  11:54-11:56-2m--1302.069304mNWRNational Highway 89, Rajasthan
35NOKGarhnokhaX  12:08-12:10-2m--1315.76997mNWRNokha, Rajasthan
36SPOSurpura  12:25-12:27-2m--1333.069286mNWRBikaner, Rajasthan
37DSODeshnoke (1)  12:40-12:42-2m11347.956274mNWRDeshnok, Rajasthan
38PAEPalana  12:52-12:54-2m--1357.212263mNWRBikaner, Rajasthan
39UMSUdramsar  13:40-13:42-2m--1366.014241mNWRBikaner, Rajasthan
40BKNBikaner Junction (6)  14:40-15:00-20m--1379.824226mNWRBikaner City, Rajasthan
41LGHLalgarh JunctionX  15:10-15:12-2m--1383.756225mNWRBikaner, Rajasthan
42KNSRKanasar  15:25-15:27-2m--1395.973209mNWRLalgarh, Rajasthan
43JMSJamsar  15:40-15:42-2m--1411.657186mNWRBikaner, Rajasthan
44JDLJagdevwala  15:54-15:56-2m--1422.945186mNWRNational Highway 15, Rajasthan
45BMNLBaman Wali HaltX  16:05-16:06-1m--1429.665193mNWRBaman Wali, Rajasthan
46DHRRDhirera  16:13-16:15-2m--1437.263190mNWRBikaner, Rajasthan
47DLCDalmera  16:24-16:26-2m--1446.666203mNWRBikaner, Rajasthan
48LKSLunkaransar  16:38-16:40-2m--1459.871194mNWRLunkaransar, Rajasthan
49NTZNathwana  16:50-16:52-2m--1471.658197mNWRMalkisar, Rajasthan
50MLCMalkisar  17:02-17:04-2m--1481.471198mNWRBikaner, Rajasthan
51MHJMahajan  17:19-17:21-2m--1499.269199mNWRMahajan, Rajasthan
52ASArjansar  17:35-17:37-2m--1515.366205mNWRBikaner, Rajasthan
53RJSRajiyasar  17:51-17:53-2m--1530.862193mNWRBiradhwal, Rajasthan
54BDWLBiradhwal  18:06-18:08-2m--1544.320189mNWRNational Highway 15, Rajasthan
55SOGSuratgarh Junction (5)  19:00----1561.8-170mNWRSuratgarh, Rajasthan
Scroll to Top
Scroll to Bottom